K0CPM-2 Weather Reports


Display with metric or nautical units.
time (UTC)temp
F
wind
direction
speed
MPH
gust
MPH
rain 1hr
in
rain 24hr
in
rain mn
in
humidity
%
barometer
mb
20260504011541 65 149 0.0 0.0 0.00 0.00 0.00 53 1015.5
20260504010050 67 149 0.0 0.0 0.00 0.00 0.00 50 1015.5
20260504004545 69 149 0.0 0.0 0.00 0.00 0.00 46 1015.4
20260504003039 71 150 0.0 0.0 0.00 0.00 0.00 44 1015.2
20260504001541 72 158 0.0 0.0 0.00 0.00 0.00 42 1015.2
20260504000038 73 120 0.0 2.0 0.00 0.00 0.00 41 1015.1
20260503234540 74 130 0.0 2.0 0.00 0.00 0.00 40 1015.2
20260503233035 76 149 0.0 2.0 0.00 0.00 0.00 40 1015.3
20260503231534 78 146 0.0 2.0 0.00 0.00 0.00 36 1015.5
20260503230039 79 145 0.0 3.0 0.00 0.00 0.00 36 1015.5
20260503224532 79 121 0.0 3.0 0.00 0.00 0.00 34 1015.6
20260503223031 79 179 0.0 2.0 0.00 0.00 0.00 34 1015.6
20260503221532 80 122 1.0 4.0 0.00 0.00 0.00 34 1015.8
20260503220034 80 181 0.0 2.0 0.00 0.00 0.00 35 1015.8
20260503214536 79 137 1.0 4.0 0.00 0.00 0.00 35 1016.0
20260503213032 80 188 0.0 4.0 0.00 0.00 0.00 35 1016.3
20260503211523 80 110 1.0 4.0 0.00 0.00 0.00 33 1016.5
20260503210021 80 158 0.0 2.0 0.00 0.00 0.00 33 1016.7
20260503204526 79 240 1.0 4.0 0.00 0.00 0.00 35 1016.9
20260503203020 80 127 1.0 3.0 0.00 0.00 0.00 32 1017.0
20260503201518 79 149 1.0 4.0 0.00 0.00 0.00 33 1017.3
20260503200017 79 134 1.0 4.0 0.00 0.00 0.00 33 1017.5
20260503194516 78 173 0.0 6.0 0.00 0.00 0.00 36 1017.6
20260503193016 79 114 1.0 5.0 0.00 0.00 0.00 35 1017.9
20260503191515 79 177 1.0 6.0 0.00 0.00 0.00 34 1018.2
20260503190017 79 186 1.0 5.0 0.00 0.00 0.00 33 1018.4
20260503184514 79 173 1.0 4.0 0.00 0.00 0.00 35 1018.6
20260503183012 79 127 0.0 5.0 0.00 0.00 0.00 34 1018.6
20260503181523 78 177 0.0 3.0 0.00 0.00 0.00 34 1018.6
20260503180015 77 149 1.0 4.0 0.00 0.00 0.00 35 1018.9
20260503174506 77 183 1.0 4.0 0.00 0.00 0.00 34 1019.2
20260503173006 78 143 0.0 3.0 0.00 0.00 0.00 34 1019.6
20260503171505 77 228 1.0 6.0 0.00 0.00 0.00 34 1019.8
20260503081548 58 155 0.0 0.0 0.00 0.01 0.00 70 1017.3
20260503071537 62 155 0.0 0.0 0.00 0.23 0.00 60 1016.8
20260503054533 65 127 1.0 4.0 0.00 0.63 0.00 54 1016.6
20260503053022 66 160 0.0 3.0 0.00 0.63 0.00 53 1016.4
20260503051523 65 167 0.0 5.0 0.00 0.63 0.00 54 1016.4
20260503050017 66 197 0.0 5.0 0.00 0.63 0.00 53 1016.6
20260503044516 66 183 0.0 4.0 0.00 0.67 0.63 54 1016.4
20260503043015 66 218 0.0 7.0 0.00 0.67 0.63 52 1016.3
20260503041513 67 149 0.0 6.0 0.00 0.67 0.63 51 1016.1
20260503040024 67 170 1.0 8.0 0.00 0.67 0.63 51 1016.1
20260503034511 66 174 0.0 4.0 0.00 0.73 0.63 53 1016.1
20260503033009 67 163 0.0 3.0 0.00 0.73 0.63 51 1016.0
20260503031508 67 152 0.0 4.0 0.00 0.73 0.63 49 1015.8
20260503030006 67 181 1.0 6.0 0.00 0.73 0.63 49 1015.6
20260503024505 67 155 0.0 4.0 0.00 0.74 0.63 48 1015.5
20260503023003 68 180 1.0 8.0 0.00 0.74 0.63 48 1015.4
20260503021502 67 155 1.0 3.0 0.00 0.74 0.63 48 1015.2
20260503020110 68 165 0.0 3.0 0.00 0.74 0.63 48 1015.1
20260503014558 68 183 0.0 4.0 0.00 0.82 0.63 49 1014.9
20260503013059 68 150 1.0 4.0 0.00 0.82 0.63 49 1014.8